Home   Weather   France   Mont-de-Marsan   Past weeks
Flag for France

Past Weather in Mont-de-Marsan, Landes, France — Yesterday and Last 2 Weeks

Currently: 39 °F. Fog. (Weather station: Mont Airport-De-Marsan, France). See more current weather

Past Weather in Mont-de-Marsan — Graph

°F

Mont-de-Marsan Temperature Yesterday

Maximum temperature yesterday: 46 °F (at 2:00 pm)
Minimum temperature yesterday: 32 °F (at 8:00 am)
Average temperature yesterday: 39 °F

High & Low Weather Summary for the Past Weeks

 TemperatureHumidityPressure
High68 °F (Nov 16, 2:30 pm)100% (Nov 16, 5:00 am)30.45 "Hg (Nov 16, 5:00 am)
Low32 °F (Nov 20, 2:30 am)49% (Nov 16, 2:30 pm)29.53 "Hg (Nov 16, 9:00 pm)
Average49 °F91%29.99 "Hg
* Reported Nov 16 4:00 am — Dec 1 4:00 am, Mont-de-Marsan. Weather by CustomWeather, © 2022

Note: Actual official high and low records may vary slightly from our data, if they occured in-between our weather recording intervals... More about our weather records

Mont-de-Marsan Weather History for the Previous 24 Hours

Scroll right to see more
 ConditionsComfort  
Time TempWeatherWind HumidityBarometerVisibility
4:00 am
Thu, Dec 1
39 °FFog.3 mph100%30.12 "Hg1 mi
3:30 am39 °FDrizzle. Fog.2 mph100%30.12 "Hg1 mi
3:00 am39 °FDense fog.2 mph100%30.12 "Hg1 mi
2:30 am39 °FFog.2 mph100%30.12 "Hg1 mi
2:00 am39 °FFog.2 mph100%30.12 "Hg1 mi
12:30 am39 °FFog.3 mph100%30.12 "Hg1 mi
12:00 am39 °FFog.5 mph100%30.12 "Hg1 mi
11:30 pm
Wed, Nov 30
39 °FFog.5 mph100%30.12 "Hg1 mi
11:00 pm39 °FLow clouds.5 mph100%30.09 "Hg4 mi
10:30 pm39 °FLow clouds.5 mph100%30.09 "HgN/A
10:00 pm39 °FLow clouds.5 mph100%30.09 "HgN/A
9:30 pm39 °FLow clouds.6 mph100%30.09 "HgN/A
9:00 pm39 °FLow clouds.6 mph100%30.09 "HgN/A
8:30 pm39 °FLow clouds.7 mph100%30.09 "HgN/A
8:00 pm39 °FLow clouds.7 mph100%30.09 "HgN/A
7:30 pm39 °FLow clouds.7 mph100%30.09 "HgN/A
7:00 pm41 °FLow clouds.7 mph93%30.09 "HgN/A
6:30 pm41 °FLow clouds.10 mph93%30.07 "HgN/A
6:00 pm41 °FLow clouds.9 mph93%30.07 "HgN/A
5:30 pm41 °FLow clouds.12 mph93%30.07 "HgN/A
5:00 pm43 °FLow clouds.9 mph87%30.07 "HgN/A
4:30 pm43 °FLow clouds.8 mph93%30.07 "HgN/A
4:00 pm45 °FPartly sunny.10 mph87%30.07 "HgN/A
3:30 pm46 °FPartly sunny.8 mph82%30.04 "HgN/A
3:00 pm46 °FPartly sunny.8 mph82%30.04 "HgN/A
2:30 pm46 °FPartly sunny.7 mph87%30.07 "HgN/A
2:00 pm46 °FPartly sunny.7 mph87%30.07 "HgN/A
1:30 pm45 °FPassing clouds.7 mph93%30.07 "HgN/A
1:00 pm43 °FPartly sunny.7 mph93%30.07 "HgN/A
12:30 pm43 °FPartly sunny.7 mph93%30.09 "HgN/A
12:00 pm43 °FLow clouds.6 mph100%30.09 "HgN/A
11:30 am41 °FLow clouds.5 mph100%30.09 "HgN/A
11:00 am39 °FFog.7 mph100%30.09 "Hg2 mi
10:30 am37 °FFog.6 mph100%30.09 "Hg1 mi
10:00 am36 °FFog.5 mph100%30.09 "Hg1 mi
9:30 am34 °FFog.2 mph100%30.09 "Hg1 mi
9:00 am34 °FFog.5 mph100%30.09 "Hg2 mi
8:30 am32 °FLight snow. Ice fog.3 mph100%30.09 "Hg1 mi
8:00 am32 °FLow clouds.3 mph100%30.09 "HgN/A
7:00 am34 °FLight fog.3 mph100%30.09 "Hg5 mi
6:30 am36 °FFog.2 mph100%30.09 "Hg1 mi
6:00 am36 °FFog.3 mph100%30.09 "Hg1 mi
5:30 am36 °FFog.3 mph100%30.09 "Hg1 mi
5:00 am36 °FFog.3 mph100%30.09 "Hg1 mi
Weather by CustomWeather, © 2022

See weather overview